Showing default

MUSAT1, 56967

Orbit data source: Space-Track

MUSAT1, 56967 is a payload satellite owned by Muon Space (US) in LEO that was launched on Mon, 12 Jun 2023 UTC via an FALCON 9 launch vehicle from the Air Force Western Test Range (AFWTR). Payloads include a variety of satellites, spacecraft, and rockets equipped with specific instruments for various scientific and technological missions. These include communications satellites like Starlink; space stations such as the ISS; scientific satellites like the Hubble; Earth observation satellites from companies like Planet Labs, Umbra, and HawkEye 360; GPS; miniature CubeSats for education and research; and military/defense satellites.

Loading next visibility...
MUSAT1 details
Identifier
56967, 2023-084AM
Orbit
LEO
Last TLE update15 hours ago
Origin
Flag of USMuon Space (US)
ManufacturerMuon Space
MissionOperational Commercial Imaging
Bus & MotorMUON, Unknown motor
Mass59 kg wet, 59 kg dry
Launch date (UTC)
2023-06-12 (1 year ago)
Launch vehicle
FALCON 9
Launch site
Air Force Western Test Range (AFWTR)
Object type
Payload
Rocket body
Debris
Shape & HBRBox, 0.5 m
Radar Cross Section0.195 m², Medium (>0.1 m² and < 1m²)

Expand to show TLE details & history

TLE from 15 hours ago
0 MUSAT1
1 56967U 23084AM  24325.80889792  .00467228  00000-0  24252-2 0  9993
2 56967  97.5346  94.3162 0004618 267.2288  92.8450 15.79750971 80577
Epoch: 2024-11-20T19:24Z
Definitive object data (Epoch: 2024-11-20T19:24:48.78Z)
Latitude-0.00005°
Longitude102.81329°
Altitude334.468 km
Speed7.708 km/s
True Right ascension06h 17m 15s
True Declination0° 00' 00"
Sunlit
Object was in full shadow at TLE epoch
Visualization TLE readout
Latitude-81.95209°
Longitude-144.97871°
Altitude354.703 km
Speed7.697 km/s
Apparent Right ascension18h 34m 04s
Apparent Declination-64° 30' 54"
Sunlit
Object is in daylight
Visualization observer readout
Local Sidereal Time07:16:23
Azimuth169.373° S
Elevation-64.64°
Doppler factor1
Orbital elements
Apogee altitude331.135 km
Perigee altitude324.941 km
Semi-major axis6,706.175 km
Eccentricity0.0004618
Inclination97.5346°
RAAN94.3162°
Arg. of periapsis267.2288°
True anomaly92.89785°
Mean anomaly92.845°
Eccentric anomaly92.87143°
Mean motion3.95213 °/min
BSTAR0.0024252
Orbital period91.09 mins
Loading maneuver chart data...
Loading historical data...
Loading historical data...
Loading historical data...
Loading historical data...
Loading historical data...
Loading historical data...
Loading historical data...

MUSAT1 Visibility forecast

Observer location: undefined°, undefined

Span
Click to sort rows by Start time (UTC) header in descending order
Start Az.
Max El. time (UTC)
Max El. Az.
Max El.
End time (UTC)
End Az.
4 mins2024-11-21 21:48:13.801Z3.105° NNE2024-11-21 21:50:13.801Z288.449° WNW41.437°2024-11-21 21:52:13.801Z204.788° SW
|